Date,Time,Wetness (Wet Dry or Ice),Wind Speed (m/s),Temperature (C),Humidity (%),Pressure (mb),Radiation (W/m^2)
2019-05-08,20:25:00,DRY,2.65,13.05,3.0,776.00,0.7
2019-05-08,20:30:00,DRY,1.90,12.90,3.0,776.00,1.3
2019-05-08,20:35:00,DRY,1.40,12.85,3.0,776.00,1.5
2019-05-08,20:40:00,DRY,1.97,12.80,3.0,776.00,1.5
2019-05-08,20:45:00,DRY,2.15,12.75,3.0,776.00,1.0
2019-05-08,20:50:00,DRY,2.80,12.97,2.3,776.00,1.0
2019-05-08,20:55:00,DRY,3.40,13.05,2.0,776.00,1.5
2019-05-08,21:00:00,DRY,2.13,12.90,2.0,776.00,1.8
2019-05-08,21:05:00,DRY,3.35,12.80,2.0,776.00,1.5
2019-05-08,21:10:00,DRY,1.63,12.73,2.0,776.00,0.8
2019-05-08,21:15:00,DRY,2.05,12.65,2.0,776.00,2.0
2019-05-08,21:20:00,DRY,3.03,12.63,2.0,776.00,0.8
2019-05-08,21:25:00,DRY,4.20,12.70,2.0,776.00,1.1
2019-05-08,21:30:00,DRY,3.00,12.60,2.0,776.00,1.2
2019-05-08,21:35:00,DRY,2.45,12.55,2.5,776.00,1.0
2019-05-08,21:40:00,DRY,2.77,12.43,2.3,776.00,0.7
2019-05-08,21:45:00,DRY,2.25,12.35,2.5,776.00,0.8
2019-05-08,21:50:00,DRY,3.70,12.37,2.0,776.00,1.6
2019-05-08,21:55:00,DRY,3.05,12.30,2.5,776.00,1.6
2019-05-08,22:00:00,DRY,1.90,12.07,2.3,776.00,1.0
2019-05-08,22:05:00,DRY,2.05,12.05,3.0,776.00,0.2
2019-05-08,22:10:00,DRY,2.27,12.10,2.7,776.33,1.1
2019-05-08,22:15:00,DRY,2.90,12.10,2.5,776.50,0.6
2019-05-08,22:20:00,DRY,2.20,12.00,3.0,776.00,0.8
2019-05-08,22:25:00,DRY,1.85,12.15,3.0,776.00,1.2
2019-05-08,22:30:00,DRY,2.63,12.17,3.0,776.00,1.4
2019-05-08,22:35:00,DRY,3.05,12.05,2.5,776.50,2.1
2019-05-08,22:40:00,DRY,2.53,11.93,3.0,776.33,1.2
2019-05-08,22:45:00,DRY,3.00,12.10,2.0,776.50,1.1
2019-05-08,22:50:00,DRY,2.83,12.17,2.0,776.67,2.3
2019-05-08,22:55:00,DRY,3.40,12.30,2.0,776.00,1.4
2019-05-08,23:00:00,DRY,3.27,12.33,2.0,776.33,0.9
2019-05-08,23:05:00,DRY,3.90,12.25,2.0,776.00,0.8
2019-05-08,23:10:00,DRY,3.10,12.07,2.0,776.33,1.0
2019-05-08,23:15:00,DRY,3.15,12.10,2.0,776.00,0.6
2019-05-08,23:20:00,DRY,2.83,12.03,2.0,776.00,0.9
2019-05-08,23:25:00,DRY,3.65,12.05,2.0,776.00,1.0
2019-05-08,23:30:00,DRY,2.37,11.80,2.3,776.00,1.4
2019-05-08,23:35:00,DRY,2.55,11.65,2.0,776.50,1.1
2019-05-08,23:40:00,DRY,2.10,11.67,2.0,776.33,0.1
2019-05-08,23:45:00,DRY,1.45,11.70,2.0,776.00,1.3
2019-05-08,23:50:00,DRY,1.30,11.67,2.0,776.33,1.8
2019-05-08,23:55:00,DRY,2.05,11.80,2.0,776.00,1.8
2019-05-09,00:00:00,DRY,2.40,11.87,2.0,776.00,1.2
2019-05-09,00:05:00,DRY,1.65,12.10,2.0,776.00,2.5
2019-05-09,00:10:00,DRY,2.23,12.33,2.0,776.00,1.5
2019-05-09,00:15:00,DRY,2.40,12.60,2.0,776.00,1.9
2019-05-09,00:20:00,DRY,2.63,12.67,2.0,776.00,1.6
2019-05-09,00:25:00,DRY,2.15,12.55,2.0,776.00,0.3
2019-05-09,00:30:00,DRY,2.57,12.47,2.0,776.00,0.9
2019-05-09,00:35:00,DRY,2.15,12.30,2.0,776.00,2.2
2019-05-09,00:40:00,DRY,2.90,12.53,2.0,776.00,1.1
2019-05-09,00:45:00,DRY,2.40,12.55,2.0,776.00,0.6
2019-05-09,00:50:00,DRY,2.40,12.60,2.0,776.00,0.7
2019-05-09,00:55:00,DRY,2.65,12.55,2.0,776.00,1.4
2019-05-09,01:00:00,DRY,2.27,12.53,2.0,776.00,1.1
2019-05-09,01:05:00,DRY,2.60,12.65,2.5,776.00,1.4
2019-05-09,01:10:00,DRY,2.13,12.60,3.7,776.00,1.1
2019-05-09,01:15:00,DRY,2.60,12.55,4.0,776.00,0.7
2019-05-09,01:20:00,DRY,2.03,12.77,4.0,776.00,1.0
2019-05-09,01:25:00,DRY,2.15,12.90,4.0,776.00,1.1
2019-05-09,01:30:00,DRY,1.83,12.83,4.0,776.00,1.8
2019-05-09,01:35:00,DRY,2.40,12.80,4.0,775.50,2.5
2019-05-09,01:40:00,DRY,2.13,12.80,4.0,775.33,1.5
2019-05-09,01:45:00,DRY,1.75,12.85,4.0,775.00,1.4
2019-05-09,01:50:00,DRY,2.30,12.83,4.0,775.00,0.8
2019-05-09,01:55:00,DRY,2.15,12.75,4.0,775.00,1.4
2019-05-09,02:00:00,DRY,2.17,12.83,4.0,775.00,0.3
2019-05-09,02:05:00,DRY,2.20,12.85,4.0,775.00,1.4
2019-05-09,02:10:00,DRY,2.07,12.63,4.0,775.00,0.6
2019-05-09,02:15:00,DRY,2.70,12.65,4.0,775.00,1.0
2019-05-09,02:20:00,DRY,2.33,12.60,4.0,775.00,1.3
2019-05-09,02:25:00,DRY,2.15,12.65,3.5,775.00,1.3
2019-05-09,02:30:00,DRY,2.17,12.70,4.0,775.00,0.5
2019-05-09,02:35:00,DRY,2.20,12.70,3.0,775.00,1.6
2019-05-09,02:40:00,DRY,2.23,12.70,3.0,775.00,0.8
2019-05-09,02:45:00,DRY,2.15,12.90,3.0,775.00,1.1
2019-05-09,02:50:00,DRY,2.53,12.87,3.0,775.00,0.8
2019-05-09,02:55:00,DRY,2.50,12.80,3.0,775.00,0.7
2019-05-09,03:00:00,DRY,2.20,12.80,2.0,775.00,1.3
2019-05-09,03:05:00,DRY,2.15,12.80,2.0,775.00,1.2
2019-05-09,03:10:00,DRY,2.13,12.73,2.0,775.00,1.3
2019-05-09,03:15:00,DRY,2.15,12.80,2.0,775.00,1.6
2019-05-09,03:20:00,DRY,1.93,12.93,1.7,775.00,1.1
2019-05-09,03:25:00,DRY,1.85,13.15,2.0,775.00,1.1
2019-05-09,03:30:00,DRY,2.23,13.17,2.0,775.00,1.1
2019-05-09,03:35:00,DRY,2.10,13.05,2.0,775.00,0.8
2019-05-09,03:40:00,DRY,1.87,12.97,2.0,775.00,1.9
2019-05-09,03:45:00,DRY,1.85,13.15,2.0,775.00,0.9
2019-05-09,03:50:00,DRY,1.77,13.23,3.0,774.33,0.7
2019-05-09,03:55:00,DRY,1.35,13.00,4.0,775.00,1.3
2019-05-09,04:00:00,DRY,1.33,13.17,4.0,774.33,0.7
2019-05-09,04:05:00,DRY,0.35,13.25,4.0,774.00,1.2
2019-05-09,04:10:00,DRY,0.73,13.03,4.0,774.67,0.6
2019-05-09,04:15:00,DRY,0.80,13.30,3.0,774.50,0.8
2019-05-09,04:20:00,DRY,0.90,13.90,3.7,775.00,1.5
2019-05-09,04:25:00,DRY,1.20,14.10,5.0,774.00,0.8
2019-05-09,04:30:00,DRY,0.73,14.23,5.0,774.00,1.3
2019-05-09,04:35:00,DRY,0.65,14.10,5.0,774.00,1.1
2019-05-09,04:40:00,DRY,0.53,13.67,5.0,774.00,1.8
2019-05-09,04:45:00,DRY,0.95,13.65,5.0,774.00,1.2
2019-05-09,04:50:00,DRY,0.90,13.90,5.0,774.00,1.5
2019-05-09,04:55:00,DRY,0.80,14.15,5.0,774.00,0.7
2019-05-09,05:00:00,DRY,0.87,14.30,5.0,774.00,1.8
2019-05-09,05:05:00,DRY,0.80,14.30,5.0,774.00,1.2
2019-05-09,05:10:00,DRY,0.80,14.23,5.0,774.00,1.0
2019-05-09,05:15:00,DRY,1.50,14.10,5.0,774.00,0.7
2019-05-09,05:20:00,DRY,1.27,14.17,5.0,774.00,2.0
2019-05-09,05:25:00,DRY,1.10,13.75,5.5,774.00,1.8
2019-05-09,05:30:00,DRY,1.40,13.33,5.3,774.00,1.3
2019-05-09,05:35:00,DRY,1.25,13.85,5.0,774.00,1.7
2019-05-09,05:40:00,DRY,0.83,13.67,5.3,774.00,1.0
2019-05-09,05:45:00,DRY,0.40,13.65,5.0,774.00,1.0
2019-05-09,05:50:00,DRY,0.83,13.50,5.7,774.00,1.2
2019-05-09,05:55:00,DRY,0.75,12.80,5.5,774.00,1.0
2019-05-09,06:00:00,DRY,0.73,12.87,5.3,774.00,1.2
2019-05-09,06:05:00,DRY,2.30,13.80,5.0,774.00,1.6
2019-05-09,06:10:00,DRY,2.17,13.53,5.3,774.00,2.0
2019-05-09,06:15:00,DRY,1.10,13.65,5.0,774.00,2.8
2019-05-09,06:20:00,DRY,1.30,13.83,5.0,774.00,4.7
2019-05-09,06:25:00,DRY,1.55,13.65,5.5,774.00,6.9
2019-05-09,06:30:00,DRY,1.60,13.53,5.0,774.00,13.1
2019-05-09,06:35:00,DRY,1.50,13.75,5.0,774.00,32.6
2019-05-09,06:40:00,DRY,2.03,13.30,5.0,774.00,55.5
2019-05-09,06:45:00,DRY,2.60,12.85,5.0,774.00,78.1
2019-05-09,06:50:00,DRY,2.40,13.27,5.0,774.00,101.9
2019-05-09,06:55:00,DRY,2.35,13.50,5.5,774.00,123.8
2019-05-09,07:00:00,DRY,2.63,13.53,5.7,774.00,142.4
2019-05-09,07:05:00,DRY,2.50,13.70,6.0,774.00,162.8
2019-05-09,07:10:00,DRY,2.70,14.03,5.7,774.00,182.9
2019-05-09,07:15:00,DRY,2.25,14.00,5.5,774.00,205.2
2019-05-09,07:20:00,DRY,2.97,14.03,5.0,774.00,225.3
2019-05-09,07:25:00,DRY,3.35,14.15,5.5,774.00,247.5
2019-05-09,07:30:00,DRY,2.90,14.03,5.0,774.00,270.4
2019-05-09,07:35:00,DRY,3.10,13.80,5.0,774.00,291.1
2019-05-09,07:40:00,DRY,2.60,13.97,5.3,774.00,314.1
2019-05-09,07:45:00,DRY,2.70,14.10,5.5,774.00,334.9
2019-05-09,07:50:00,DRY,2.53,14.03,5.0,774.00,357.4
2019-05-09,07:55:00,DRY,2.95,14.20,5.5,774.00,380.5
2019-05-09,08:00:00,DRY,2.10,14.60,6.0,774.00,401.7
2019-05-09,08:05:00,DRY,2.00,14.65,5.0,774.00,424.4
2019-05-09,08:10:00,DRY,2.70,14.60,5.0,774.00,445.8
2019-05-09,08:15:00,DRY,2.70,14.75,5.5,774.00,467.5
2019-05-09,08:20:00,DRY,1.97,14.90,5.7,774.00,488.8
2019-05-09,08:25:00,DRY,1.30,15.00,6.5,774.00,511.6
2019-05-09,08:30:00,DRY,1.30,15.07,6.0,774.00,531.8
2019-05-09,08:35:00,DRY,1.70,15.15,5.5,774.00,551.8
2019-05-09,08:40:00,DRY,1.87,15.10,5.7,774.00,573.6
2019-05-09,08:45:00,DRY,1.75,15.05,6.0,774.50,594.0
2019-05-09,08:50:00,DRY,1.77,15.40,7.0,774.00,614.7
2019-05-09,08:55:00,DRY,1.45,15.65,6.5,774.00,634.4
2019-05-09,09:00:00,DRY,0.80,15.67,5.7,774.00,654.1
2019-05-09,09:05:00,DRY,0.60,15.85,7.0,774.00,673.5
2019-05-09,09:10:00,DRY,1.23,16.40,6.3,774.00,693.9
2019-05-09,09:15:00,DRY,0.60,16.00,5.5,774.00,711.0
2019-05-09,09:20:00,DRY,0.93,16.47,6.7,774.00,729.4
2019-05-09,09:25:00,DRY,0.90,16.65,8.0,774.00,749.4
2019-05-09,09:30:00,DRY,2.10,17.07,9.7,774.00,764.8
2019-05-09,09:35:00,DRY,1.05,16.75,9.5,774.00,782.7
2019-05-09,09:40:00,DRY,1.20,16.87,10.3,774.00,799.1
2019-05-09,09:45:00,DRY,0.95,16.65,10.0,774.00,816.0
2019-05-09,09:50:00,DRY,0.80,16.43,8.3,774.00,833.7
2019-05-09,09:55:00,DRY,1.70,16.55,9.5,774.00,851.1
2019-05-09,10:00:00,DRY,1.27,16.83,8.3,774.00,868.1
2019-05-09,10:05:00,DRY,1.45,17.05,10.5,774.00,881.8
2019-05-09,10:10:00,DRY,1.63,17.47,10.3,774.00,898.4
2019-05-09,10:15:00,DRY,1.20,17.55,10.0,774.00,911.6
2019-05-09,10:20:00,DRY,1.97,16.93,10.7,774.00,926.6
2019-05-09,10:25:00,DRY,2.15,17.00,15.0,774.00,936.2
2019-05-09,10:30:00,DRY,1.93,16.80,14.0,774.00,951.9
2019-05-09,10:35:00,DRY,1.75,17.05,16.5,774.00,964.0
2019-05-09,10:40:00,DRY,1.87,16.73,19.3,774.00,978.0
2019-05-09,10:45:00,DRY,1.90,17.10,22.0,774.00,989.5
2019-05-09,10:50:00,DRY,1.10,16.77,21.0,774.00,1002.2
2019-05-09,10:55:00,DRY,1.35,17.20,21.0,774.00,1014.9
2019-05-09,11:00:00,DRY,1.53,17.60,19.3,774.00,1026.2
2019-05-09,11:05:00,DRY,0.90,17.50,13.0,774.00,1035.6
2019-05-09,11:10:00,DRY,2.10,17.20,10.7,774.00,1045.9
2019-05-09,11:15:00,DRY,1.45,17.05,10.5,774.00,1057.2
2019-05-09,11:20:00,DRY,1.30,17.47,16.3,774.00,1064.0
2019-05-09,11:25:00,DRY,1.85,17.25,27.5,774.00,1070.3
2019-05-09,11:30:00,DRY,1.70,17.30,28.7,774.00,1079.4
2019-05-09,11:35:00,DRY,1.20,17.30,32.5,774.00,1083.9
2019-05-09,11:40:00,DRY,2.13,17.10,37.3,774.00,1091.6
2019-05-09,11:45:00,DRY,2.30,17.35,39.0,774.00,1098.6
2019-05-09,11:50:00,DRY,1.97,17.03,38.0,774.00,1102.2
2019-05-09,11:55:00,DRY,2.55,17.45,42.5,774.00,1104.6
2019-05-09,12:00:00,DRY,2.17,16.67,42.0,774.00,1110.0
2019-05-09,12:05:00,DRY,1.70,16.80,36.5,774.00,1118.8
2019-05-09,12:10:00,DRY,1.97,16.83,44.3,774.00,1122.6
2019-05-09,12:15:00,DRY,1.30,16.80,44.5,774.00,1124.3
2019-05-09,12:20:00,DRY,2.30,17.10,45.0,774.00,1131.2
2019-05-09,12:25:00,DRY,1.60,17.40,46.0,774.00,1136.9
2019-05-09,12:30:00,DRY,1.63,17.77,39.0,774.00,1140.4
2019-05-09,12:35:00,DRY,1.25,17.25,47.0,774.00,1142.0
2019-05-09,12:40:00,DRY,1.97,17.47,43.3,774.00,1147.1
2019-05-09,12:45:00,DRY,1.40,18.50,37.0,774.00,1151.1
2019-05-09,12:50:00,DRY,2.27,17.63,42.7,774.00,1148.4
2019-05-09,12:55:00,DRY,2.30,17.20,43.5,774.00,1148.7
2019-05-09,13:00:00,DRY,1.27,17.43,40.0,774.00,1152.6
2019-05-09,13:05:00,DRY,2.50,16.70,41.0,774.00,1148.5
2019-05-09,13:10:00,DRY,1.73,16.77,37.3,774.00,1151.8
2019-05-09,13:15:00,DRY,2.45,17.50,37.0,774.00,1145.5
2019-05-09,13:20:00,DRY,2.17,16.90,38.7,774.00,1146.8
2019-05-09,13:25:00,DRY,1.40,17.30,36.5,774.00,1148.0
2019-05-09,13:30:00,DRY,2.20,17.50,39.0,774.00,1143.9
2019-05-09,13:35:00,DRY,1.00,17.10,31.0,774.00,1144.8
2019-05-09,13:40:00,DRY,2.00,16.90,39.7,774.00,1141.2
2019-05-09,13:45:00,DRY,1.75,16.50,39.0,774.00,1138.5
2019-05-09,13:50:00,DRY,1.70,17.00,42.0,774.00,1135.7
2019-05-09,13:55:00,DRY,2.10,17.20,42.0,774.00,1132.9
2019-05-09,14:00:00,DRY,1.40,17.23,34.7,774.00,1128.4
2019-05-09,14:05:00,DRY,2.05,16.45,43.5,774.00,1123.6
2019-05-09,14:10:00,DRY,1.10,16.57,37.7,774.00,1122.0
2019-05-09,14:15:00,DRY,1.80,17.10,38.5,774.00,1112.3
2019-05-09,14:20:00,DRY,1.57,17.07,36.0,774.00,1107.7
2019-05-09,14:25:00,DRY,2.00,17.20,35.0,774.00,1102.4
2019-05-09,14:30:00,DRY,2.00,17.03,35.7,774.00,1093.8
2019-05-09,14:35:00,DRY,1.65,16.20,37.0,774.00,1091.4
2019-05-09,14:40:00,DRY,2.57,16.63,39.0,774.00,1080.9
2019-05-09,14:45:00,DRY,1.70,16.25,39.5,774.00,1073.4
2019-05-09,14:50:00,DRY,1.80,17.10,37.0,774.00,1063.1
2019-05-09,14:55:00,DRY,2.65,16.90,36.0,774.00,1052.9
2019-05-09,15:00:00,DRY,2.43,16.47,37.7,774.00,1045.3
2019-05-09,15:05:00,DRY,1.00,16.45,37.5,774.00,1033.6
2019-05-09,15:10:00,DRY,1.80,16.70,33.7,774.00,1021.7
2019-05-09,15:15:00,DRY,1.80,15.85,37.5,774.00,1007.3
2019-05-09,15:20:00,DRY,0.77,16.27,35.7,774.00,997.1
2019-05-09,15:25:00,DRY,2.40,16.65,37.5,774.00,983.8
2019-05-09,15:30:00,DRY,2.03,17.03,33.7,774.00,972.0
2019-05-09,15:35:00,DRY,2.25,16.60,36.0,774.00,960.1
2019-05-09,15:40:00,DRY,1.40,16.40,34.7,774.00,947.6
2019-05-09,15:45:00,DRY,1.75,16.30,34.0,774.00,931.8
2019-05-09,15:50:00,DRY,1.63,16.73,35.3,774.00,916.6
2019-05-09,15:55:00,DRY,2.05,16.65,37.0,774.00,904.6
2019-05-09,16:00:00,DRY,1.83,16.57,36.7,774.00,891.3
2019-05-09,16:05:00,DRY,1.95,16.35,37.0,774.00,876.5
2019-05-09,16:10:00,DRY,1.63,16.13,37.3,774.00,859.3
2019-05-09,16:15:00,DRY,1.95,16.00,35.0,773.50,843.8
2019-05-09,16:20:00,DRY,2.13,15.80,37.0,773.33,825.0
2019-05-09,16:25:00,DRY,1.50,16.45,32.5,773.50,809.5
2019-05-09,16:30:00,DRY,1.53,16.67,31.3,773.00,797.4
2019-05-09,16:35:00,DRY,1.00,15.60,26.5,773.00,779.8
2019-05-09,16:40:00,DRY,2.13,16.23,18.0,773.00,760.2
2019-05-09,16:45:00,DRY,1.15,16.10,32.5,773.00,743.4
2019-05-09,16:50:00,DRY,1.77,16.60,27.0,773.00,725.3
2019-05-09,16:55:00,DRY,2.25,16.45,31.5,773.00,705.9
2019-05-09,17:00:00,DRY,1.83,16.20,32.0,773.00,686.9
2019-05-09,17:05:00,DRY,2.25,15.75,27.5,773.00,668.0
2019-05-09,17:10:00,DRY,1.80,15.70,25.0,773.00,647.4
2019-05-09,17:15:00,DRY,2.65,15.90,21.0,773.00,630.0
2019-05-09,17:20:00,DRY,1.77,16.23,20.7,773.00,607.1
2019-05-09,17:25:00,DRY,2.40,15.80,17.5,773.00,587.5
2019-05-09,17:30:00,DRY,1.67,14.97,16.7,773.00,567.3
2019-05-09,17:35:00,DRY,1.95,15.30,17.5,773.00,545.0
2019-05-09,17:40:00,DRY,2.63,15.07,14.7,773.00,525.9
2019-05-09,17:45:00,DRY,2.90,14.90,15.0,773.00,503.9
2019-05-09,17:50:00,DRY,1.97,15.07,13.0,773.00,482.3
2019-05-09,17:55:00,DRY,1.90,14.75,11.0,773.00,459.4
2019-05-09,18:00:00,DRY,1.00,14.60,9.7,773.00,438.6
2019-05-09,18:05:00,DRY,2.00,14.90,10.0,773.00,417.5
2019-05-09,18:10:00,DRY,1.53,14.77,14.3,773.00,396.3
2019-05-09,18:15:00,DRY,1.20,14.65,15.0,773.00,371.8
2019-05-09,18:20:00,DRY,1.30,14.73,20.0,773.00,350.6
2019-05-09,18:25:00,DRY,0.95,14.80,21.0,773.00,328.6
2019-05-09,18:30:00,DRY,1.03,14.77,23.0,773.00,306.8
2019-05-09,18:35:00,DRY,1.45,14.45,20.0,773.00,284.6
2019-05-09,18:40:00,DRY,1.40,14.30,13.7,773.00,263.5
2019-05-09,18:45:00,DRY,1.60,14.15,15.0,773.00,243.0
2019-05-09,18:50:00,DRY,1.63,13.83,15.3,773.00,221.3
2019-05-09,18:55:00,DRY,1.45,13.65,17.0,773.00,200.4
2019-05-09,19:00:00,DRY,1.90,13.73,13.0,773.00,180.8
2019-05-09,19:05:00,DRY,1.95,13.70,8.0,773.00,163.2
2019-05-09,19:10:00,DRY,1.97,13.63,5.7,773.00,142.7
2019-05-09,19:15:00,DRY,1.70,13.50,3.5,773.00,119.1
2019-05-09,19:20:00,DRY,2.10,13.53,6.0,773.00,92.6
2019-05-09,19:25:00,DRY,2.45,13.45,4.5,773.00,70.5
2019-05-09,19:30:00,DRY,1.57,13.47,6.3,773.00,51.7
2019-05-09,19:35:00,DRY,2.00,13.45,3.5,773.00,35.5
2019-05-09,19:40:00,DRY,1.53,13.23,4.7,773.00,21.9
2019-05-09,19:45:00,DRY,1.45,13.20,6.0,773.00,14.3
2019-05-09,19:50:00,DRY,0.87,13.63,4.7,773.00,11.4
2019-05-09,19:55:00,DRY,0.65,13.80,6.5,773.00,7.5
2019-05-09,20:00:00,DRY,1.30,13.30,7.0,773.00,3.8
2019-05-09,20:05:00,DRY,0.55,13.10,5.5,773.00,2.5
2019-05-09,20:10:00,DRY,0.90,12.97,8.3,774.00,1.3
2019-05-09,20:15:00,DRY,0.65,13.05,8.0,774.00,1.6
2019-05-09,20:20:00,DRY,0.87,12.77,9.0,774.00,2.0
2019-05-09,20:25:00,DRY,0.80,12.45,6.0,774.00,2.3
2019-05-09,20:30:00,DRY,0.73,12.50,5.3,774.00,1.5
2019-05-09,20:35:00,DRY,1.20,12.95,5.5,774.00,1.6
2019-05-09,20:40:00,DRY,0.50,13.00,4.7,774.00,1.3
2019-05-09,20:45:00,DRY,0.35,13.00,3.0,774.00,1.2
2019-05-09,20:50:00,DRY,0.73,13.20,3.3,774.00,1.1
2019-05-09,20:55:00,DRY,0.65,13.45,3.5,774.00,1.2
2019-05-09,21:00:00,DRY,0.37,13.57,3.3,774.00,1.1
2019-05-09,21:05:00,DRY,0.40,13.25,3.5,774.00,1.2
2019-05-09,21:10:00,DRY,1.40,13.57,3.3,774.00,1.7
2019-05-09,21:15:00,DRY,0.75,13.35,6.0,774.00,1.5
2019-05-09,21:20:00,DRY,1.07,12.83,6.0,774.00,0.7
2019-05-09,21:25:00,DRY,1.65,13.00,6.0,774.00,0.5
2019-05-09,21:30:00,DRY,1.23,12.73,6.3,774.00,1.0
2019-05-09,21:35:00,DRY,1.40,12.75,6.0,774.00,0.8
2019-05-09,21:40:00,DRY,1.57,12.53,6.3,774.00,2.0
2019-05-09,21:45:00,DRY,1.65,12.50,6.0,774.00,1.2
2019-05-09,21:50:00,DRY,1.73,12.60,7.0,774.00,1.1
2019-05-09,21:55:00,DRY,2.15,12.35,7.0,774.00,1.6
2019-05-09,22:00:00,DRY,1.93,12.17,7.0,774.00,2.3
2019-05-09,22:05:00,DRY,1.75,12.40,7.0,774.00,0.3
2019-05-09,22:10:00,DRY,1.77,12.23,7.0,774.00,1.5
2019-05-09,22:15:00,DRY,1.80,12.60,6.0,774.00,1.5
2019-05-09,22:20:00,DRY,2.00,12.57,4.7,774.00,1.5
2019-05-09,22:25:00,DRY,2.00,12.75,4.0,774.00,1.1
2019-05-09,22:30:00,DRY,2.07,12.43,4.0,774.00,1.1
2019-05-09,22:35:00,DRY,1.80,12.15,4.5,774.00,1.8
2019-05-09,22:40:00,DRY,1.87,12.10,4.3,774.00,1.9
2019-05-09,22:45:00,DRY,2.10,12.15,4.0,774.00,1.0
2019-05-09,22:50:00,DRY,1.93,12.27,4.0,774.00,0.9
2019-05-09,22:55:00,DRY,1.95,12.30,4.0,774.00,0.4
2019-05-09,23:00:00,DRY,1.73,12.07,4.0,774.00,0.9
2019-05-09,23:05:00,DRY,2.20,12.20,4.0,774.00,1.7
2019-05-09,23:10:00,DRY,2.07,12.33,3.7,774.00,0.8
2019-05-09,23:15:00,DRY,2.05,12.20,4.0,774.00,1.5
2019-05-09,23:20:00,DRY,1.97,12.43,3.3,774.00,1.7
2019-05-09,23:25:00,DRY,2.10,12.40,4.5,774.00,1.7
2019-05-09,23:30:00,DRY,1.93,12.17,5.0,774.00,0.9
2019-05-09,23:35:00,DRY,2.05,11.75,6.0,774.00,1.2
2019-05-09,23:40:00,DRY,1.90,12.07,5.3,774.00,0.8
2019-05-09,23:45:00,DRY,1.65,12.00,5.0,774.00,1.0
2019-05-09,23:50:00,DRY,1.50,12.13,5.0,774.00,0.3
2019-05-09,23:55:00,DRY,1.75,11.65,6.0,774.00,2.0
2019-05-10,00:00:00,DRY,1.57,11.73,6.0,774.00,1.5
2019-05-10,00:05:00,DRY,1.25,12.05,5.5,774.00,1.2
2019-05-10,00:10:00,DRY,1.50,12.10,5.0,774.00,1.8
2019-05-10,00:15:00,DRY,1.15,12.05,5.0,774.00,1.5
2019-05-10,00:20:00,DRY,0.93,12.30,5.0,774.00,1.1
2019-05-10,00:25:00,DRY,1.05,12.55,5.0,774.00,1.8
2019-05-10,00:30:00,DRY,1.17,12.60,5.3,774.00,1.6
2019-05-10,00:35:00,DRY,1.40,12.45,5.5,774.00,0.7
2019-05-10,00:40:00,DRY,0.83,12.50,5.0,774.00,1.3
2019-05-10,00:45:00,DRY,0.55,12.40,5.0,774.00,1.0
2019-05-10,00:50:00,DRY,0.67,12.17,5.7,774.00,1.7
2019-05-10,00:55:00,DRY,0.55,12.00,5.0,774.00,1.5
2019-05-10,01:00:00,DRY,1.30,12.20,5.7,774.00,1.2
2019-05-10,01:05:00,DRY,0.85,12.25,5.0,773.50,0.8
2019-05-10,01:10:00,DRY,0.87,12.30,5.0,773.00,1.8
2019-05-10,01:15:00,DRY,1.10,12.35,5.5,773.00,1.2
2019-05-10,01:20:00,DRY,0.67,12.27,5.0,773.00,1.3
2019-05-10,01:25:00,DRY,1.20,12.25,5.0,773.00,1.3
2019-05-10,01:30:00,DRY,1.47,12.47,6.0,773.00,1.3
2019-05-10,01:35:00,DRY,1.50,12.35,5.0,773.00,0.9
2019-05-10,01:40:00,DRY,1.17,12.30,4.0,773.00,2.0
2019-05-10,01:45:00,DRY,0.65,12.05,4.5,773.00,1.3
2019-05-10,01:50:00,DRY,0.33,11.47,4.7,773.00,1.3
2019-05-10,01:55:00,DRY,0.30,11.30,5.0,773.00,1.1
2019-05-10,02:00:00,DRY,0.47,11.43,5.0,773.00,1.8
2019-05-10,02:05:00,DRY,0.70,11.75,5.5,773.00,1.6
2019-05-10,02:10:00,DRY,1.43,11.97,5.0,773.00,1.3
2019-05-10,02:15:00,DRY,1.90,11.85,5.5,773.00,1.6
2019-05-10,02:20:00,DRY,2.10,10.97,6.0,773.00,0.5
2019-05-10,02:25:00,DRY,2.10,11.00,5.5,773.00,1.9
2019-05-10,02:30:00,DRY,1.95,11.30,5.0,773.00,1.5
2019-05-10,02:35:00,DRY,1.10,11.85,4.5,773.00,0.8
2019-05-10,02:40:00,DRY,1.07,11.87,4.7,773.00,1.3
2019-05-10,02:45:00,DRY,0.45,11.80,4.0,773.00,1.1
2019-05-10,02:50:00,DRY,0.27,11.40,5.0,773.00,1.1
2019-05-10,02:55:00,DRY,0.40,11.10,5.0,773.00,1.1
2019-05-10,03:00:00,DRY,0.47,11.03,5.0,773.00,1.3
2019-05-10,03:05:00,DRY,0.55,11.10,6.0,773.00,1.4
2019-05-10,03:10:00,DRY,0.53,11.20,6.0,772.33,1.2
2019-05-10,03:15:00,DRY,0.80,11.45,6.0,772.00,1.7
2019-05-10,03:20:00,DRY,0.83,11.30,6.0,772.33,0.8
2019-05-10,03:25:00,DRY,1.05,11.05,6.0,772.00,1.4
2019-05-10,03:30:00,DRY,0.87,11.17,6.0,772.00,1.1
2019-05-10,03:35:00,DRY,0.90,11.20,6.0,772.00,2.1
2019-05-10,03:40:00,DRY,0.83,11.10,6.0,772.00,1.3
2019-05-10,03:45:00,DRY,1.05,11.15,6.5,772.00,1.6
2019-05-10,03:50:00,DRY,1.07,11.20,7.0,772.00,0.9
2019-05-10,03:55:00,DRY,0.75,11.20,6.5,772.00,0.5
2019-05-10,04:00:00,DRY,0.37,11.17,5.7,772.00,1.4
2019-05-10,04:05:00,DRY,0.55,10.90,4.5,772.00,1.1
2019-05-10,04:10:00,DRY,0.70,10.73,3.0,772.00,1.2
2019-05-10,04:15:00,DRY,1.00,10.85,6.0,772.00,0.8
2019-05-10,04:20:00,DRY,1.00,11.13,4.7,772.00,2.1
2019-05-10,04:25:00,DRY,0.75,10.75,5.0,772.00,1.5
2019-05-10,04:30:00,DRY,1.20,11.00,4.0,772.00,1.5
2019-05-10,04:35:00,DRY,1.00,11.05,3.5,772.00,1.4
2019-05-10,04:40:00,DRY,1.47,11.30,4.0,772.00,0.7
2019-05-10,04:45:00,DRY,1.95,11.10,4.0,772.00,1.1
2019-05-10,04:50:00,DRY,1.37,11.03,4.0,772.00,0.3
2019-05-10,04:55:00,DRY,1.85,11.35,4.0,772.00,0.1
2019-05-10,05:00:00,DRY,1.93,11.70,4.3,772.00,0.8
2019-05-10,05:05:00,DRY,1.45,11.70,4.5,772.00,1.0
2019-05-10,05:10:00,DRY,1.63,11.63,5.7,772.00,1.3
2019-05-10,05:15:00,DRY,1.45,11.90,5.5,772.00,1.6
2019-05-10,05:20:00,DRY,1.33,12.00,5.3,772.00,1.5
2019-05-10,05:25:00,DRY,1.55,11.70,6.0,772.00,2.4
2019-05-10,05:30:00,DRY,1.57,11.73,6.0,772.00,1.8
2019-05-10,05:35:00,DRY,1.70,12.25,5.0,772.00,1.8
2019-05-10,05:40:00,DRY,1.57,12.13,4.3,772.00,1.0
2019-05-10,05:45:00,DRY,1.00,11.90,4.5,772.00,1.3
2019-05-10,05:50:00,DRY,0.43,11.83,4.0,772.00,1.1
2019-05-10,05:55:00,DRY,0.45,11.80,4.5,772.00,1.4
2019-05-10,06:00:00,DRY,0.57,11.90,4.0,772.00,1.4
2019-05-10,06:05:00,DRY,1.00,12.10,4.0,772.00,1.4
2019-05-10,06:10:00,DRY,1.43,12.27,4.3,772.00,2.3
2019-05-10,06:15:00,DRY,1.50,12.35,4.5,772.00,2.1
2019-05-10,06:20:00,DRY,1.07,12.23,5.3,772.00,5.2
2019-05-10,06:25:00,DRY,0.70,11.90,5.0,772.00,8.4
2019-05-10,06:30:00,DRY,0.70,11.97,5.0,772.00,16.2
2019-05-10,06:35:00,DRY,0.70,12.30,4.5,772.00,33.6
2019-05-10,06:40:00,DRY,0.50,13.00,4.0,772.00,58.5
2019-05-10,06:45:00,DRY,0.60,13.00,4.0,772.00,83.4
2019-05-10,06:50:00,DRY,0.70,12.85,4.0,772.00,102.6
2019-05-10,06:55:00,,,,,,
2019-05-10,07:00:00,DRY,1.00,12.70,4.0,772.00,155.1
2019-05-10,07:05:00,DRY,0.95,12.90,5.0,772.00,166.1
2019-05-10,07:10:00,DRY,1.27,12.90,6.0,772.00,187.7
2019-05-10,07:15:00,DRY,1.00,13.00,6.5,772.00,208.8
2019-05-10,07:20:00,DRY,1.30,13.00,5.0,772.00,221.2
2019-05-10,07:25:00,DRY,0.80,13.15,6.5,772.00,252.2
2019-05-10,07:30:00,DRY,0.50,13.33,6.3,772.00,274.3
2019-05-10,07:35:00,DRY,0.45,14.20,5.5,772.00,295.8
2019-05-10,07:40:00,DRY,1.00,14.87,6.3,772.00,319.3
2019-05-10,07:45:00,DRY,1.10,14.40,6.0,772.00,341.6
2019-05-10,07:50:00,DRY,1.40,14.17,5.3,772.00,362.7
2019-05-10,07:55:00,DRY,1.40,14.10,6.0,772.00,385.7
2019-05-10,08:00:00,DRY,1.33,14.13,6.7,772.00,406.6
2019-05-10,08:05:00,DRY,1.50,14.15,8.5,772.00,429.4
2019-05-10,08:10:00,DRY,1.13,14.40,5.7,772.00,451.7
2019-05-10,08:15:00,DRY,0.55,14.40,5.5,772.00,472.6
2019-05-10,08:20:00,DRY,1.33,14.30,7.7,772.00,493.3
2019-05-10,08:25:00,DRY,2.20,14.55,7.5,772.00,516.4
2019-05-10,08:30:00,DRY,1.70,14.43,7.3,772.00,536.2
2019-05-10,08:35:00,DRY,1.25,14.35,7.0,772.00,557.5
2019-05-10,08:40:00,DRY,1.43,14.47,7.3,772.00,578.3
2019-05-10,08:45:00,DRY,1.60,14.85,8.5,772.00,597.7
2019-05-10,08:50:00,DRY,1.77,14.63,7.3,772.00,618.6
2019-05-10,08:55:00,DRY,2.55,14.70,7.5,772.00,638.5
2019-05-10,09:00:00,DRY,1.70,14.47,7.7,772.00,658.1
2019-05-10,09:05:00,DRY,2.30,14.50,8.5,772.00,678.1
2019-05-10,09:10:00,DRY,1.83,14.43,8.0,772.00,697.0
2019-05-10,09:15:00,DRY,2.15,14.15,5.5,772.00,715.4
2019-05-10,09:20:00,DRY,1.87,14.30,7.3,772.00,734.6
2019-05-10,09:25:00,DRY,1.65,14.75,6.5,772.00,753.5
2019-05-10,09:30:00,DRY,1.33,14.90,7.0,772.00,769.8
2019-05-10,09:35:00,DRY,1.55,14.95,5.5,772.00,789.0
2019-05-10,09:40:00,DRY,0.73,15.10,4.7,772.00,804.6
2019-05-10,09:45:00,DRY,2.10,15.30,5.5,772.00,821.0
2019-05-10,09:50:00,DRY,2.50,15.25,7.5,772.00,841.2
2019-05-10,09:55:00,DRY,2.25,15.25,9.0,772.00,853.7
2019-05-10,10:00:00,DRY,1.83,14.90,12.3,772.67,870.0
2019-05-10,10:05:00,DRY,2.25,15.50,13.0,772.00,884.7
2019-05-10,10:10:00,DRY,2.23,15.33,9.7,773.00,900.2
2019-05-10,10:15:00,DRY,2.50,15.20,15.0,772.50,912.6
2019-05-10,10:20:00,DRY,1.60,14.73,16.0,773.00,929.1
2019-05-10,10:25:00,DRY,2.00,14.75,13.5,773.00,940.2
2019-05-10,10:30:00,DRY,2.40,15.00,10.3,773.00,954.2
2019-05-10,10:35:00,DRY,2.30,14.85,13.5,773.00,966.4
2019-05-10,10:40:00,DRY,1.77,14.80,16.3,773.00,978.5
2019-05-10,10:45:00,DRY,1.90,14.65,23.0,773.00,989.8
2019-05-10,10:50:00,DRY,1.47,15.00,25.0,773.00,1001.8
2019-05-10,10:55:00,DRY,1.70,15.40,27.5,773.00,1012.3
2019-05-10,11:00:00,DRY,1.63,14.97,31.3,773.00,1024.4
2019-05-10,11:05:00,DRY,2.90,15.45,31.5,773.00,1031.8
2019-05-10,11:10:00,DRY,2.07,15.17,34.0,773.00,1041.1